Kanopus-V No. 5

operational
NORAD ID: 43876 Int'l Des: 2018-111 Owner: VNIIEMI Country: RU
LEOCIRCULARRETROGRADESSO

About Kanopus-V No. 5

Description loading...

Live Position

Loading 3D Globe...

Upcoming Passes

Altitude History

Altitude vs Time

uPlot chart will show altitude changes over time

Two-Line Element Set

1 43876U 18111A 26063.18441792 .00004929 00000-0 21292-3 0 9996
2 43876 97.3655 330.8151 0001600 85.9613 274.1806 15.22945916398805
Epoch: Mar 4, 2026 • Age: 23 hours

Current Status

Altitude 500.9 km
Velocity 7.61 km/s
Sub-Earth Point -5.81°S, 179.76°E
Launch Date Dec 27, 2018
Age 7.1 years
Type other

Technical Details

Classification Payload
Mass 473.00 kg
Dry Mass 473.00 kg
Total Mass 473.00 kg
Length 1.00 m
Diameter 0.60 m
Span 6.00 m
Shape Box+ 2 pan
Manufacturer VNIIEMI
Bus Type Kanopus
Phase Status In Orbit
Owner/State VNIIEMI/RU

Large Constellations

Loading constellations...